Weather History for North Island, CA

Change the Weather History Date:

Monday, December 10, 2012

  Actual Average Record
Temperature  
Mean Temperature 62 °F -  
Max Temperature 71 °F 62 °F 73 °F (2004)
Min Temperature 52 °F 47 °F 42 °F (1997)
Degree Days  
Heating Degree Days 4    
Growing Degree Days 12 (Base 50)    
Moisture  
Dew Point 50 °F    
Average Humidity 72    
Maximum Humidity 87    
Minimum Humidity 32    
Precipitation  
Precipitation 0.00 in - - ()
Sea Level Pressure  
Sea Level Pressure 30.08 in    
Wind  
Wind Speed 3 mph (NNW)    
Max Wind Speed 10 mph    
Max Gust Speed -    
Visibility 5 miles    
Events      
Averages and records for this station are not official NWS values.
T = Trace of Precipitation, MM = Missing Value Source: NWS Daily Summary

Daily Weather History Graph

Daily Weather History Graph

Search for Another Location

Airport:

Trip Planner

Search our weather history database for the weather conditions in past years. The results will help you decide how hot, cold, wet, or windy it might be!

Date:

Astronomy

Dec. 10, 2012 Rise Set
Actual Time 6:40 AM PST 4:43 PM PST
Civil Twilight 6:13 AM PST 5:10 PM PST
Nautical Twilight 5:42 AM PST 5:41 PM PST
Astronomical Twilight 5:12 AM PST 6:11 PM PST
Moon 3:35 AM PST (12/10) 2:31 PM PST (12/10)
Length of Visible Light 10h 57m
Length of Day
10h 02m
Waning Crescent, 9% of the Moon is Illuminated
Dec 10
Waning Crescent
Dec 13
New
Dec 19
First Quarter
Dec 28
Full
Jan 4
Last Quarter

Hourly Weather History & Observations

Time (PST) Temp. Dew Point Humidity Pressure Visibility Wind Dir Wind Speed Gust Speed Precip Events Conditions
12:52 AM 54.0 °F 50.0 °F 86% 30.10 in 4.0 mi Calm Calm - N/A   Scattered Clouds
1:52 AM 54.0 °F 50.0 °F 86% 30.10 in 4.0 mi NNW 3.5 mph - N/A   Scattered Clouds
2:52 AM 54.0 °F 48.9 °F 83% 30.10 in 5.0 mi Calm Calm - N/A   Scattered Clouds
3:52 AM 53.1 °F 48.0 °F 83% 30.09 in 5.0 mi Calm Calm - N/A   Scattered Clouds
4:52 AM 54.0 °F 48.9 °F 83% 30.09 in 5.0 mi NE 3.5 mph - N/A   Scattered Clouds
5:52 AM 53.1 °F 48.9 °F 86% 30.09 in 4.0 mi Calm Calm - N/A   Scattered Clouds
6:52 AM 52.0 °F 48.0 °F 86% 30.11 in 4.0 mi Calm Calm - N/A   Scattered Clouds
7:52 AM 55.9 °F 51.1 °F 84% 30.12 in 4.0 mi Calm Calm - N/A   Scattered Clouds
8:52 AM 60.1 °F 52.0 °F 75% 30.13 in 7.0 mi Calm Calm - N/A   Partly Cloudy
9:52 AM 68.0 °F 50.0 °F 52% 30.13 in 7.0 mi NNW 3.5 mph - N/A   Partly Cloudy
10:52 AM 71.1 °F 39.9 °F 32% 30.11 in 8.0 mi NNW 4.6 mph - N/A   Partly Cloudy
11:52 AM 71.1 °F 46.0 °F 41% 30.09 in 10.0 mi WNW 10.4 mph - N/A   Clear
12:52 PM 71.1 °F 46.0 °F 41% 30.07 in 9.0 mi NW 10.4 mph - N/A   Clear
1:52 PM 71.1 °F 46.0 °F 41% 30.05 in 8.0 mi NW 10.4 mph - N/A   Clear
2:52 PM 70.0 °F 50.0 °F 49% 30.04 in 7.0 mi NNW 10.4 mph - N/A   Clear
3:52 PM 66.9 °F 52.0 °F 59% 30.04 in 6.0 mi NW 8.1 mph - N/A   Haze
4:52 PM 63.0 °F 54.0 °F 72% 30.04 in 4.0 mi NW 5.8 mph - N/A   Haze
5:52 PM 63.0 °F 55.9 °F 78% 30.05 in 4.0 mi North 6.9 mph - N/A   Partly Cloudy
6:52 PM 60.1 °F 55.0 °F 83% 30.06 in 4.0 mi Calm Calm - N/A   Partly Cloudy
7:52 PM 60.1 °F 55.0 °F 83% 30.06 in 4.0 mi NW 4.6 mph - N/A   Partly Cloudy
8:52 PM 57.9 °F 54.0 °F 87% 30.06 in 4.0 mi North 3.5 mph - N/A   Partly Cloudy
9:52 PM 57.9 °F 54.0 °F 87% 30.06 in 4.0 mi Calm Calm - N/A   Partly Cloudy
10:52 PM 57.0 °F 53.1 °F 87% 30.07 in 4.0 mi Calm Calm - N/A   Partly Cloudy
11:52 PM 55.9 °F 51.1 °F 84% 30.05 in 4.0 mi Calm Calm - N/A   Partly Cloudy